Location: Indian Hills
(32.9760°N, 85.9450°W)
Time: 12:16:16
(UTC+00:00)

Cosmos 676 Rocket - Pass Details

Date: 09 December 2019
Orbit: 754 x 785 km, 74.0° (Epoch: 23 January)

Event Time Altitude Azimuth Distance (km) Brightness Sun altitude
Exits shadow 11:25:04 - 337° (NNW) 2,448 6.2 -14.4°
Reaches altitude 10° 11:25:25 10° 336° (NNW) 2,314 6.1 -14.3°
Maximum altitude 11:30:36 63° 256° (WSW) 861 4.0 -13.3°
Drops below altitude 10° 11:35:49 10° 176° (S) 2,320 6.8 -12.2°
Sets 11:38:13 0° 173° (S) 3,248 7.6 -11.7°
